Retour au catalogue

SL-16 DEB

ActifLEO
NORAD 22502·DEBRIS·🇷🇺 Russia

Lancé Dec 25, 1992 depuis Baikonur Cosmodrome

Loading…

Prochains Passages (prochaines 24 heures)

TLE

FraisSource: Space-Track

Époque: Sep 14, 2026, 03:31 UTC

1 22502U 92093GM  26257.14657247  .00000165  00000-0  15657-3 0  9991
2 22502  70.8160 152.6503 0151525 167.4080 343.7260 13.89755122706700

Suivez SL-16 DEB en temps réel avec AllMySat

Download on the App Store